Location: Rowland
(34.5359°N, 79.2929°W)
Time: 17:33:26
(UTC+00:00)

S-56A Canister/Altair - Pass Details

Date: 07 October 2022
Orbit: 638 x 2494 km, 38.9° (Epoch: 06 December)

Event Time Altitude Azimuth Distance (km) Brightness Sun altitude
Rises 02:49:28 0° 213° (SSW) 6,123 12.1 -47.3°
Reaches altitude 10° 02:53:47 10° 207° (SSW) 5,147 11.6 -48.0°
Enters shadow 02:54:38 12° 205° (SSW) 4,959 11.5 -48.1°
